Wetterdaten: Freitag, 15.06.2018
Datum Zeit Temp. I. Temp. A. Boden 5 cm Feuchte A. Sonne Luftdruck Regen Wind Sonnenschein Zeit Regen
15.06.2018 00:00 20,1 C 12,2 C 15,6 C 80 % 0 % 1019 hPa 0,0 l/m 0,0 km/h (0 Bft) 0 min 0 min
15.06.2018 00:03 20,1 C 12,1 C 15,7 C 80 % 0 % 1019 hPa 0,0 l/m 0,0 km/h (0 Bft) 0 min 0 min
15.06.2018 00:06 20,0 C 12,0 C 15,7 C 80 % 0 % 1019 hPa 0,0 l/m 0,0 km/h (0 Bft) 0 min 0 min
15.06.2018 00:09 20,0 C 12,0 C 15,7 C 81 % 0 % 1019 hPa 0,0 l/m 0,0 km/h (0 Bft) 0 min 0 min
15.06.2018 00:12 20,0 C 12,1 C 15,8 C 81 % 0 % 1019 hPa 0,0 l/m 0,0 km/h (0 Bft) 0 min 0 min
15.06.2018 00:15 20,0 C 12,0 C 15,8 C 80 % 0 % 1019 hPa 0,0 l/m 0,0 km/h (0 Bft) 0 min 0 min
15.06.2018 00:18 20,0 C 12,1 C 15,7 C 80 % 0 % 1019 hPa 0,0 l/m 0,0 km/h (0 Bft) 0 min 0 min
15.06.2018 00:21 20,0 C 12,1 C 15,6 C 80 % 0 % 1019 hPa 0,0 l/m 0,0 km/h (0 Bft) 0 min 0 min
15.06.2018 00:24 19,9 C 12,1 C 15,7 C 80 % 0 % 1019 hPa 0,0 l/m 0,0 km/h (0 Bft) 0 min 0 min
15.06.2018 00:27 19,9 C 12,1 C 15,6 C 80 % 0 % 1019 hPa 0,0 l/m 0,0 km/h (0 Bft) 0 min 0 min
15.06.2018 00:30 19,8 C 12,2 C 15,6 C 81 % 0 % 1019 hPa 0,0 l/m 0,1 km/h (0 Bft) 0 min 0 min
15.06.2018 00:33 19,8 C 12,1 C 15,4 C 81 % 0 % 1019 hPa 0,0 l/m 0,0 km/h (0 Bft) 0 min 0 min
15.06.2018 00:36 19,8 C 12,2 C 15,6 C 81 % 0 % 1019 hPa 0,0 l/m 0,0 km/h (0 Bft) 0 min 0 min
15.06.2018 00:39 19,8 C 12,2 C 15,5 C 81 % 0 % 1019 hPa 0,0 l/m 0,0 km/h (0 Bft) 0 min 0 min
15.06.2018 00:42 19,8 C 12,2 C 15,5 C 81 % 0 % 1019 hPa 0,0 l/m 0,0 km/h (0 Bft) 0 min 0 min
15.06.2018 00:45 19,8 C 12,2 C 15,4 C 81 % 0 % 1019 hPa 0,0 l/m 0,0 km/h (0 Bft) 0 min 0 min
15.06.2018 00:48 19,8 C 12,2 C 15,5 C 81 % 0 % 1019 hPa 0,0 l/m 0,0 km/h (0 Bft) 0 min 0 min
15.06.2018 00:51 19,8 C 12,3 C 15,5 C 81 % 0 % 1019 hPa 0,0 l/m 0,0 km/h (0 Bft) 0 min 0 min
15.06.2018 00:54 19,8 C 12,2 C 15,5 C 80 % 0 % 1019 hPa 0,0 l/m 0,0 km/h (0 Bft) 0 min 0 min
15.06.2018 00:57 19,8 C 12,2 C 15,6 C 80 % 0 % 1019 hPa 0,0 l/m 0,0 km/h (0 Bft) 0 min 0 min
15.06.2018 01:00 19,8 C 12,3 C 15,4 C 80 % 0 % 1019 hPa 0,0 l/m 0,0 km/h (0 Bft) 0 min 0 min
15.06.2018 01:03 19,7 C 12,3 C 15,5 C 80 % 0 % 1019 hPa 0,0 l/m 0,0 km/h (0 Bft) 0 min 0 min
15.06.2018 01:06 19,8 C 12,4 C 15,6 C 80 % 0 % 1019 hPa 0,0 l/m 0,0 km/h (0 Bft) 0 min 0 min
15.06.2018 01:09 19,8 C 12,4 C 15,5 C 80 % 0 % 1019 hPa 0,0 l/m 0,0 km/h (0 Bft) 0 min 0 min
15.06.2018 01:12 19,8 C 12,3 C 15,4 C 80 % 0 % 1019 hPa 0,0 l/m 0,0 km/h (0 Bft) 0 min 0 min
15.06.2018 01:15 19,7 C 12,2 C 15,5 C 80 % 0 % 1019 hPa 0,0 l/m 0,0 km/h (0 Bft) 0 min 0 min
15.06.2018 01:18 19,7 C 12,2 C 15,5 C 80 % 0 % 1019 hPa 0,0 l/m 0,0 km/h (0 Bft) 0 min 0 min
15.06.2018 01:21 19,7 C 12,3 C 15,5 C 80 % 0 % 1019 hPa 0,0 l/m 0,0 km/h (0 Bft) 0 min 0 min
15.06.2018 01:24 19,7 C 12,3 C 15,4 C 80 % 0 % 1019 hPa 0,0 l/m 0,0 km/h (0 Bft) 0 min 0 min
15.06.2018 01:27 19,7 C 12,3 C 15,3 C 80 % 0 % 1019 hPa 0,0 l/m 0,0 km/h (0 Bft) 0 min 0 min
15.06.2018 01:30 19,7 C 12,3 C 15,3 C 80 % 0 % 1019 hPa 0,0 l/m 0,0 km/h (0 Bft) 0 min 0 min
15.06.2018 01:33 19,6 C 12,3 C 15,3 C 80 % 0 % 1019 hPa 0,0 l/m 0,0 km/h (0 Bft) 0 min 0 min
15.06.2018 01:36 19,6 C 12,4 C 15,3 C 80 % 0 % 1019 hPa 0,0 l/m 0,1 km/h (0 Bft) 0 min 0 min
15.06.2018 01:39 19,6 C 12,4 C 15,4 C 80 % 0 % 1019 hPa 0,0 l/m 0,6 km/h (0 Bft) 0 min 0 min
15.06.2018 01:42 19,6 C 12,4 C 15,4 C 80 % 0 % 1019 hPa 0,0 l/m 0,0 km/h (0 Bft) 0 min 0 min
15.06.2018 01:45 19,6 C 12,4 C 15,2 C 80 % 0 % 1019 hPa 0,0 l/m 0,0 km/h (0 Bft) 0 min 0 min
15.06.2018 01:48 19,6 C 12,4 C 15,2 C 80 % 0 % 1019 hPa 0,0 l/m 0,0 km/h (0 Bft) 0 min 0 min
15.06.2018 01:51 19,6 C 12,4 C 15,3 C 80 % 0 % 1019 hPa 0,0 l/m 0,0 km/h (0 Bft) 0 min 0 min
15.06.2018 01:54 19,6 C 12,4 C 15,5 C 80 % 0 % 1019 hPa 0,0 l/m 0,0 km/h (0 Bft) 0 min 0 min
15.06.2018 01:57 19,6 C 12,5 C 15,4 C 80 % 0 % 1019 hPa 0,0 l/m 0,0 km/h (0 Bft) 0 min 0 min
15.06.2018 02:00 19,6 C 12,5 C 15,3 C 80 % 0 % 1019 hPa 0,0 l/m 0,0 km/h (0 Bft) 0 min 0 min
15.06.2018 02:03 19,6 C 12,5 C 15,3 C 80 % 0 % 1019 hPa 0,0 l/m 0,1 km/h (0 Bft) 0 min 0 min
15.06.2018 02:06 19,6 C 12,6 C 15,4 C 80 % 0 % 1019 hPa 0,0 l/m 0,0 km/h (0 Bft) 0 min 0 min
15.06.2018 02:09 19,5 C 12,6 C 15,3 C 80 % 0 % 1019 hPa 0,0 l/m 0,9 km/h (0 Bft) 0 min 0 min
15.06.2018 02:12 19,5 C 12,6 C 15,4 C 80 % 0 % 1019 hPa 0,0 l/m 0,0 km/h (0 Bft) 0 min 0 min
15.06.2018 02:15 19,5 C 12,6 C 15,4 C 80 % 0 % 1019 hPa 0,0 l/m 0,0 km/h (0 Bft) 0 min 0 min
15.06.2018 02:18 19,6 C 12,6 C 15,3 C 80 % 0 % 1019 hPa 0,0 l/m 0,0 km/h (0 Bft) 0 min 0 min
15.06.2018 02:21 19,6 C 12,6 C 15,3 C 80 % 0 % 1019 hPa 0,0 l/m 0,0 km/h (0 Bft) 0 min 0 min
15.06.2018 02:24 19,6 C 12,6 C 15,2 C 79 % 0 % 1019 hPa 0,0 l/m 0,1 km/h (0 Bft) 0 min 0 min
15.06.2018 02:27 19,6 C 12,6 C 15,1 C 80 % 0 % 1019 hPa 0,0 l/m 0,1 km/h (0 Bft) 0 min 0 min
15.06.2018 02:30 19,5 C 12,5 C 15,2 C 79 % 0 % 1019 hPa 0,0 l/m 0,0 km/h (0 Bft) 0 min 0 min
15.06.2018 02:33 19,5 C 12,5 C 15,3 C 79 % 0 % 1019 hPa 0,0 l/m 0,0 km/h (0 Bft) 0 min 0 min
15.06.2018 02:36 19,5 C 12,5 C 15,2 C 80 % 0 % 1019 hPa 0,0 l/m 0,0 km/h (0 Bft) 0 min 0 min
15.06.2018 02:39 19,4 C 12,5 C 15,3 C 80 % 0 % 1019 hPa 0,0 l/m 0,0 km/h (0 Bft) 0 min 0 min
15.06.2018 02:42 19,4 C 12,4 C 15,2 C 80 % 0 % 1019 hPa 0,0 l/m 2,6 km/h (1 Bft) 0 min 0 min
15.06.2018 02:45 19,4 C 12,4 C 15,2 C 80 % 0 % 1019 hPa 0,0 l/m 1,0 km/h (0 Bft) 0 min 0 min
15.06.2018 02:48 19,4 C 12,5 C 15,2 C 80 % 0 % 1019 hPa 0,0 l/m 0,2 km/h (0 Bft) 0 min 0 min
15.06.2018 02:51 19,4 C 12,5 C 14,9 C 80 % 0 % 1019 hPa 0,0 l/m 0,3 km/h (0 Bft) 0 min 0 min
15.06.2018 02:54 19,3 C 12,4 C 15,1 C 80 % 0 % 1019 hPa 0,0 l/m 0,0 km/h (0 Bft) 0 min 0 min
15.06.2018 02:57 19,3 C 12,4 C 15,1 C 80 % 0 % 1019 hPa 0,0 l/m 0,0 km/h (0 Bft) 0 min 0 min
15.06.2018 03:00 19,3 C 12,3 C 15,0 C 79 % 0 % 1019 hPa 0,0 l/m 0,0 km/h (0 Bft) 0 min 0 min
15.06.2018 03:03 19,3 C 12,3 C 15,1 C 79 % 0 % 1019 hPa 0,0 l/m 0,0 km/h (0 Bft) 0 min 0 min
15.06.2018 03:06 19,3 C 12,4 C 15,1 C 79 % 0 % 1019 hPa 0,0 l/m 0,4 km/h (0 Bft) 0 min 0 min
15.06.2018 03:09 19,2 C 12,4 C 15,1 C 79 % 0 % 1019 hPa 0,0 l/m 0,0 km/h (0 Bft) 0 min 0 min
15.06.2018 03:12 19,2 C 12,4 C 15,1 C 79 % 0 % 1019 hPa 0,0 l/m 0,0 km/h (0 Bft) 0 min 0 min
15.06.2018 03:15 19,2 C 12,4 C 15,2 C 79 % 0 % 1019 hPa 0,0 l/m 0,0 km/h (0 Bft) 0 min 0 min
15.06.2018 03:18 19,2 C 12,5 C 15,2 C 80 % 0 % 1019 hPa 0,0 l/m 0,3 km/h (0 Bft) 0 min 0 min
15.06.2018 03:21 19,2 C 12,4 C 15,1 C 80 % 0 % 1019 hPa 0,0 l/m 0,0 km/h (0 Bft) 0 min 0 min
15.06.2018 03:24 19,2 C 12,4 C 15,1 C 80 % 0 % 1019 hPa 0,0 l/m 0,1 km/h (0 Bft) 0 min 0 min
15.06.2018 03:27 19,2 C 12,4 C 15,1 C 80 % 0 % 1019 hPa 0,0 l/m 0,1 km/h (0 Bft) 0 min 0 min
15.06.2018 03:30 19,2 C 12,4 C 15,2 C 80 % 0 % 1019 hPa 0,0 l/m 0,0 km/h (0 Bft) 0 min 0 min
15.06.2018 03:33 19,2 C 12,4 C 15,0 C 80 % 0 % 1019 hPa 0,0 l/m 0,1 km/h (0 Bft) 0 min 0 min
15.06.2018 03:36 19,2 C 12,4 C 15,0 C 80 % 0 % 1019 hPa 0,0 l/m 0,0 km/h (0 Bft) 0 min 0 min
15.06.2018 03:39 19,2 C 12,4 C 15,1 C 80 % 0 % 1019 hPa 0,0 l/m 0,0 km/h (0 Bft) 0 min 0 min
15.06.2018 03:42 19,2 C 12,4 C 15,1 C 80 % 0 % 1019 hPa 0,0 l/m 0,0 km/h (0 Bft) 0 min 0 min
15.06.2018 03:45 19,2 C 12,4 C 15,1 C 80 % 0 % 1019 hPa 0,0 l/m 0,0 km/h (0 Bft) 0 min 0 min
15.06.2018 03:48 19,2 C 12,4 C 14,9 C 80 % 0 % 1019 hPa 0,0 l/m 0,1 km/h (0 Bft) 0 min 0 min
15.06.2018 03:51 19,2 C 12,4 C 15,1 C 80 % 0 % 1019 hPa 0,0 l/m 0,0 km/h (0 Bft) 0 min 0 min
15.06.2018 03:54 19,2 C 12,4 C 15,1 C 80 % 0 % 1019 hPa 0,0 l/m 0,0 km/h (0 Bft) 0 min 0 min
15.06.2018 03:57 19,2 C 12,3 C 14,8 C 80 % 0 % 1019 hPa 0,0 l/m 0,4 km/h (0 Bft) 0 min 0 min
15.06.2018 04:00 19,2 C 12,2 C 14,9 C 80 % 0 % 1019 hPa 0,0 l/m 0,0 km/h (0 Bft) 0 min 0 min
15.06.2018 04:03 19,2 C 12,2 C 14,9 C 80 % 0 % 1019 hPa 0,0 l/m 0,0 km/h (0 Bft) 0 min 0 min
15.06.2018 04:06 19,2 C 12,2 C 15,0 C 80 % 0 % 1019 hPa 0,0 l/m 0,0 km/h (0 Bft) 0 min 0 min
15.06.2018 04:09 19,1 C 12,2 C 15,1 C 80 % 0 % 1019 hPa 0,0 l/m 0,0 km/h (0 Bft) 0 min 0 min
15.06.2018 04:12 19,1 C 12,2 C 15,1 C 80 % 0 % 1019 hPa 0,0 l/m 0,0 km/h (0 Bft) 0 min 0 min
15.06.2018 04:15 19,1 C 12,2 C 15,0 C 80 % 0 % 1019 hPa 0,0 l/m 0,0 km/h (0 Bft) 0 min 0 min
15.06.2018 04:18 19,1 C 12,2 C 14,9 C 80 % 0 % 1019 hPa 0,0 l/m 0,7 km/h (0 Bft) 0 min 0 min
15.06.2018 04:21 19,1 C 12,2 C 14,9 C 80 % 0 % 1019 hPa 0,0 l/m 0,0 km/h (0 Bft) 0 min 0 min
15.06.2018 04:24 19,1 C 12,2 C 15,1 C 80 % 0 % 1019 hPa 0,0 l/m 0,0 km/h (0 Bft) 0 min 0 min
15.06.2018 04:27 19,1 C 12,2 C 15,1 C 80 % 0 % 1019 hPa 0,0 l/m 0,0 km/h (0 Bft) 0 min 0 min
15.06.2018 04:30 19,1 C 12,2 C 14,9 C 80 % 0 % 1019 hPa 0,0 l/m 0,0 km/h (0 Bft) 0 min 0 min
15.06.2018 04:33 19,1 C 12,1 C 15,0 C 80 % 0 % 1019 hPa 0,0 l/m 0,0 km/h (0 Bft) 0 min 0 min
15.06.2018 04:36 19,1 C 12,2 C 15,0 C 80 % 0 % 1019 hPa 0,0 l/m 0,0 km/h (0 Bft) 0 min 0 min
15.06.2018 04:39 19,1 C 12,2 C 14,9 C 80 % 0 % 1019 hPa 0,0 l/m 0,0 km/h (0 Bft) 0 min 0 min
15.06.2018 04:42 19,1 C 12,3 C 15,0 C 79 % 0 % 1019 hPa 0,0 l/m 0,0 km/h (0 Bft) 0 min 0 min
15.06.2018 04:45 19,0 C 12,2 C 15,0 C 79 % 0 % 1019 hPa 0,0 l/m 0,0 km/h (0 Bft) 0 min 0 min
15.06.2018 04:48 19,1 C 12,3 C 15,0 C 79 % 0 % 1019 hPa 0,0 l/m 0,0 km/h (0 Bft) 0 min 0 min
15.06.2018 04:51 19,1 C 12,4 C 14,9 C 79 % 0 % 1019 hPa 0,0 l/m 0,0 km/h (0 Bft) 0 min 0 min
15.06.2018 04:54 19,1 C 12,2 C 15,0 C 79 % 0 % 1019 hPa 0,0 l/m 0,0 km/h (0 Bft) 0 min 0 min
15.06.2018 04:57 19,0 C 12,3 C 15,1 C 79 % 0 % 1019 hPa 0,0 l/m 0,0 km/h (0 Bft) 0 min 0 min
15.06.2018 05:00 19,0 C 12,3 C 15,0 C 79 % 0 % 1019 hPa 0,0 l/m 0,0 km/h (0 Bft) 0 min 0 min
15.06.2018 05:03 19,0 C 12,3 C 15,0 C 79 % 0 % 1019 hPa 0,0 l/m 0,0 km/h (0 Bft) 0 min 0 min
15.06.2018 05:06 19,1 C 12,3 C 14,9 C 79 % 1 % 1019 hPa 0,0 l/m 0,0 km/h (0 Bft) 0 min 0 min
15.06.2018 05:09 19,0 C 12,3 C 15,0 C 79 % 1 % 1019 hPa 0,0 l/m 0,0 km/h (0 Bft) 0 min 0 min
15.06.2018 05:12 19,0 C 12,3 C 15,0 C 79 % 1 % 1019 hPa 0,0 l/m 0,0 km/h (0 Bft) 0 min 0 min
15.06.2018 05:15 19,0 C 12,3 C 14,9 C 79 % 1 % 1019 hPa 0,0 l/m 0,0 km/h (0 Bft) 0 min 0 min
15.06.2018 05:18 19,0 C 12,3 C 15,0 C 79 % 1 % 1019 hPa 0,0 l/m 0,0 km/h (0 Bft) 0 min 0 min
15.06.2018 05:21 19,0 C 12,3 C 14,9 C 79 % 1 % 1019 hPa 0,0 l/m 0,0 km/h (0 Bft) 0 min 0 min
15.06.2018 05:24 19,0 C 12,4 C 14,9 C 79 % 2 % 1019 hPa 0,0 l/m 0,0 km/h (0 Bft) 0 min 0 min
15.06.2018 05:27 19,0 C 12,4 C 14,9 C 79 % 2 % 1019 hPa 0,0 l/m 0,6 km/h (0 Bft) 0 min 0 min
15.06.2018 05:30 19,0 C 12,3 C 14,9 C 79 % 2 % 1019 hPa 0,0 l/m 0,0 km/h (0 Bft) 0 min 0 min
15.06.2018 05:33 19,0 C 12,3 C 14,8 C 79 % 2 % 1019 hPa 0,0 l/m 0,0 km/h (0 Bft) 0 min 0 min
15.06.2018 05:36 19,0 C 12,3 C 15,0 C 79 % 3 % 1019 hPa 0,0 l/m 0,0 km/h (0 Bft) 0 min 0 min
15.06.2018 05:39 19,0 C 12,3 C 15,0 C 79 % 3 % 1019 hPa 0,0 l/m 0,0 km/h (0 Bft) 0 min 0 min
15.06.2018 05:42 19,0 C 12,3 C 14,9 C 79 % 3 % 1019 hPa 0,0 l/m 0,0 km/h (0 Bft) 0 min 0 min
15.06.2018 05:45 19,0 C 12,3 C 15,0 C 79 % 3 % 1019 hPa 0,0 l/m 0,1 km/h (0 Bft) 0 min 0 min
15.06.2018 05:48 18,9 C 12,3 C 15,0 C 79 % 3 % 1019 hPa 0,0 l/m 0,0 km/h (0 Bft) 0 min 0 min
15.06.2018 05:51 18,9 C 12,3 C 15,0 C 79 % 4 % 1019 hPa 0,0 l/m 0,0 km/h (0 Bft) 0 min 0 min
15.06.2018 05:54 18,9 C 12,3 C 15,0 C 79 % 4 % 1019 hPa 0,0 l/m 0,0 km/h (0 Bft) 0 min 0 min
15.06.2018 05:57 18,9 C 12,4 C 15,0 C 79 % 5 % 1019 hPa 0,0 l/m 2,6 km/h (1 Bft) 0 min 0 min
15.06.2018 06:00 18,9 C 12,4 C 15,0 C 79 % 5 % 1019 hPa 0,0 l/m 2,6 km/h (1 Bft) 0 min 0 min
15.06.2018 06:03 18,9 C 12,4 C 14,9 C 79 % 5 % 1019 hPa 0,0 l/m 0,1 km/h (0 Bft) 0 min 0 min
15.06.2018 06:06 18,9 C 12,4 C 15,0 C 79 % 6 % 1019 hPa 0,0 l/m 0,0 km/h (0 Bft) 0 min 0 min
15.06.2018 06:09 18,9 C 12,4 C 15,0 C 79 % 6 % 1019 hPa 0,0 l/m 0,0 km/h (0 Bft) 0 min 0 min
15.06.2018 06:12 18,9 C 12,4 C 15,0 C 79 % 6 % 1019 hPa 0,0 l/m 0,0 km/h (0 Bft) 0 min 0 min
15.06.2018 06:15 18,9 C 12,4 C 14,9 C 79 % 7 % 1019 hPa 0,0 l/m 0,0 km/h (0 Bft) 0 min 0 min
15.06.2018 06:18 18,8 C 12,5 C 15,0 C 79 % 8 % 1019 hPa 0,0 l/m 0,0 km/h (0 Bft) 0 min 0 min
15.06.2018 06:21 18,9 C 12,5 C 14,9 C 79 % 8 % 1019 hPa 0,0 l/m 0,1 km/h (0 Bft) 0 min 0 min
15.06.2018 06:24 18,9 C 12,5 C 14,8 C 79 % 8 % 1019 hPa 0,0 l/m 0,0 km/h (0 Bft) 0 min 0 min
15.06.2018 06:27 18,9 C 12,5 C 14,8 C 79 % 9 % 1019 hPa 0,0 l/m 0,0 km/h (0 Bft) 0 min 0 min
15.06.2018 06:30 18,8 C 12,5 C 14,9 C 79 % 9 % 1019 hPa 0,0 l/m 0,0 km/h (0 Bft) 0 min 0 min
15.06.2018 06:33 18,9 C 12,6 C 15,0 C 79 % 10 % 1019 hPa 0,0 l/m 0,0 km/h (0 Bft) 0 min 0 min
15.06.2018 06:36 18,9 C 12,5 C 14,9 C 78 % 10 % 1019 hPa 0,0 l/m 0,0 km/h (0 Bft) 0 min 0 min
15.06.2018 06:39 18,8 C 12,6 C 15,0 C 78 % 11 % 1019 hPa 0,0 l/m 0,1 km/h (0 Bft) 0 min 0 min
15.06.2018 06:42 18,9 C 12,6 C 14,9 C 78 % 12 % 1019 hPa 0,0 l/m 0,0 km/h (0 Bft) 0 min 0 min
15.06.2018 06:45 18,8 C 12,6 C 15,0 C 78 % 12 % 1019 hPa 0,0 l/m 0,3 km/h (0 Bft) 0 min 0 min
15.06.2018 06:48 18,8 C 12,6 C 15,0 C 78 % 12 % 1019 hPa 0,0 l/m 2,6 km/h (1 Bft) 0 min 0 min
15.06.2018 06:51 18,8 C 12,6 C 14,9 C 78 % 13 % 1019 hPa 0,0 l/m 3,2 km/h (1 Bft) 0 min 0 min
15.06.2018 06:54 18,8 C 12,6 C 15,0 C 78 % 13 % 1019 hPa 0,0 l/m 1,9 km/h (1 Bft) 0 min 0 min
15.06.2018 06:57 18,8 C 12,6 C 14,9 C 78 % 14 % 1019 hPa 0,0 l/m 2,3 km/h (1 Bft) 0 min 0 min
15.06.2018 07:00 18,8 C 12,6 C 15,0 C 78 % 14 % 1019 hPa 0,0 l/m 0,3 km/h (0 Bft) 0 min 0 min
15.06.2018 07:03 18,8 C 12,7 C 15,0 C 78 % 15 % 1019 hPa 0,0 l/m 0,9 km/h (0 Bft) 0 min 0 min
15.06.2018 07:06 18,8 C 12,7 C 15,0 C 78 % 15 % 1019 hPa 0,0 l/m 0,9 km/h (0 Bft) 0 min 0 min
15.06.2018 07:09 18,9 C 12,8 C 15,0 C 78 % 15 % 1019 hPa 0,0 l/m 0,0 km/h (0 Bft) 0 min 0 min
15.06.2018 07:12 19,0 C 12,8 C 15,0 C 78 % 16 % 1019 hPa 0,0 l/m 0,0 km/h (0 Bft) 0 min 0 min
15.06.2018 07:15 19,0 C 12,8 C 15,0 C 78 % 16 % 1019 hPa 0,0 l/m 0,1 km/h (0 Bft) 0 min 0 min
15.06.2018 07:18 19,0 C 12,8 C 15,0 C 78 % 18 % 1019 hPa 0,0 l/m 2,3 km/h (1 Bft) 0 min 0 min
15.06.2018 07:21 19,2 C 12,9 C 15,1 C 78 % 18 % 1019 hPa 0,0 l/m 0,0 km/h (0 Bft) 0 min 0 min
15.06.2018 07:24 19,2 C 13,0 C 15,0 C 78 % 18 % 1019 hPa 0,0 l/m 0,0 km/h (0 Bft) 0 min 0 min
15.06.2018 07:27 19,4 C 13,0 C 15,1 C 78 % 19 % 1019 hPa 0,0 l/m 0,0 km/h (0 Bft) 0 min 0 min
15.06.2018 07:30 19,4 C 13,0 C 15,1 C 78 % 20 % 1019 hPa 0,0 l/m 0,1 km/h (0 Bft) 0 min 0 min
15.06.2018 07:33 19,5 C 13,0 C 15,0 C 78 % 20 % 1019 hPa 0,0 l/m 0,0 km/h (0 Bft) 0 min 0 min
15.06.2018 07:36 19,5 C 13,0 C 15,0 C 77 % 20 % 1019 hPa 0,0 l/m 0,3 km/h (0 Bft) 0 min 0 min
15.06.2018 07:39 19,6 C 13,1 C 15,1 C 77 % 20 % 1019 hPa 0,0 l/m 0,1 km/h (0 Bft) 0 min 0 min
15.06.2018 07:42 19,6 C 13,2 C 15,1 C 77 % 21 % 1019 hPa 0,0 l/m 0,0 km/h (0 Bft) 0 min 0 min
15.06.2018 07:45 19,6 C 13,2 C 15,2 C 77 % 21 % 1019 hPa 0,0 l/m 0,0 km/h (0 Bft) 0 min 0 min
15.06.2018 07:48 19,6 C 13,2 C 15,1 C 76 % 23 % 1019 hPa 0,0 l/m 1,5 km/h (1 Bft) 0 min 0 min
15.06.2018 07:51 19,6 C 13,2 C 15,2 C 77 % 23 % 1019 hPa 0,0 l/m 2,2 km/h (1 Bft) 0 min 0 min
15.06.2018 07:54 19,7 C 13,3 C 15,2 C 77 % 23 % 1019 hPa 0,0 l/m 3,2 km/h (1 Bft) 0 min 0 min
15.06.2018 07:57 19,7 C 13,3 C 15,2 C 77 % 25 % 1019 hPa 0,0 l/m 2,1 km/h (1 Bft) 0 min 0 min
15.06.2018 08:00 19,7 C 13,4 C 15,2 C 77 % 25 % 1019 hPa 0,0 l/m 0,0 km/h (0 Bft) 0 min 0 min
15.06.2018 08:03 19,7 C 13,4 C 15,3 C 76 % 24 % 1019 hPa 0,0 l/m 0,3 km/h (0 Bft) 0 min 0 min
15.06.2018 08:06 19,7 C 13,5 C 15,3 C 77 % 24 % 1019 hPa 0,0 l/m 2,0 km/h (1 Bft) 0 min 0 min
15.06.2018 08:09 19,7 C 13,5 C 15,2 C 76 % 24 % 1019 hPa 0,0 l/m 1,5 km/h (1 Bft) 0 min 0 min
15.06.2018 08:12 19,7 C 13,6 C 15,2 C 76 % 25 % 1019 hPa 0,0 l/m 0,1 km/h (0 Bft) 0 min 0 min
15.06.2018 08:15 19,8 C 13,6 C 15,3 C 77 % 26 % 1019 hPa 0,0 l/m 0,1 km/h (0 Bft) 0 min 0 min
15.06.2018 08:18 19,8 C 13,6 C 15,3 C 75 % 28 % 1019 hPa 0,0 l/m 0,0 km/h (0 Bft) 0 min 0 min
15.06.2018 08:21 19,8 C 13,6 C 15,3 C 75 % 29 % 1019 hPa 0,0 l/m 0,3 km/h (0 Bft) 0 min 0 min
15.06.2018 08:24 19,8 C 13,6 C 15,3 C 75 % 30 % 1019 hPa 0,0 l/m 0,0 km/h (0 Bft) 0 min 0 min
15.06.2018 08:27 19,8 C 13,6 C 15,4 C 75 % 30 % 1019 hPa 0,0 l/m 1,0 km/h (0 Bft) 0 min 0 min
15.06.2018 08:30 19,8 C 13,8 C 15,4 C 75 % 31 % 1019 hPa 0,0 l/m 3,6 km/h (1 Bft) 0 min 0 min
15.06.2018 08:33 19,8 C 13,8 C 15,4 C 74 % 30 % 1019 hPa 0,0 l/m 0,4 km/h (0 Bft) 0 min 0 min
15.06.2018 08:36 19,8 C 13,9 C 15,3 C 74 % 29 % 1019 hPa 0,0 l/m 0,0 km/h (0 Bft) 0 min 0 min
15.06.2018 08:39 19,8 C 13,9 C 15,4 C 74 % 30 % 1019 hPa 0,0 l/m 0,0 km/h (0 Bft) 0 min 0 min
15.06.2018 08:42 19,8 C 14,0 C 15,5 C 76 % 31 % 1019 hPa 0,0 l/m 0,8 km/h (0 Bft) 0 min 0 min
15.06.2018 08:45 19,8 C 14,0 C 15,4 C 75 % 31 % 1019 hPa 0,0 l/m 0,0 km/h (0 Bft) 0 min 0 min
15.06.2018 08:48 19,9 C 14,0 C 15,4 C 74 % 31 % 1019 hPa 0,0 l/m 0,0 km/h (0 Bft) 0 min 0 min
15.06.2018 08:51 19,9 C 14,1 C 15,5 C 74 % 32 % 1019 hPa 0,0 l/m 0,1 km/h (0 Bft) 0 min 0 min
15.06.2018 08:54 19,9 C 14,2 C 15,6 C 74 % 33 % 1019 hPa 0,0 l/m 1,6 km/h (1 Bft) 0 min 0 min
15.06.2018 08:57 19,9 C 14,2 C 15,6 C 74 % 35 % 1019 hPa 0,0 l/m 0,0 km/h (0 Bft) 0 min 0 min
15.06.2018 09:00 19,9 C 14,3 C 15,6 C 72 % 38 % 1019 hPa 0,0 l/m 0,0 km/h (0 Bft) 0 min 0 min
15.06.2018 09:03 19,9 C 14,5 C 15,6 C 74 % 38 % 1019 hPa 0,0 l/m 0,7 km/h (0 Bft) 0 min 0 min
15.06.2018 09:06 19,9 C 14,5 C 15,7 C 73 % 39 % 1019 hPa 0,0 l/m 0,0 km/h (0 Bft) 0 min 0 min
15.06.2018 09:09 19,9 C 14,6 C 15,6 C 73 % 39 % 1019 hPa 0,0 l/m 0,0 km/h (0 Bft) 0 min 0 min
15.06.2018 09:12 19,9 C 14,6 C 15,7 C 73 % 40 % 1019 hPa 0,0 l/m 0,3 km/h (0 Bft) 0 min 0 min
15.06.2018 09:15 19,9 C 14,8 C 15,7 C 74 % 41 % 1019 hPa 0,0 l/m 0,4 km/h (0 Bft) 0 min 0 min
15.06.2018 09:18 19,9 C 14,9 C 15,8 C 74 % 42 % 1019 hPa 0,0 l/m 3,9 km/h (1 Bft) 0 min 0 min
15.06.2018 09:21 19,9 C 15,0 C 15,8 C 73 % 45 % 1019 hPa 0,0 l/m 0,6 km/h (0 Bft) 0 min 0 min
15.06.2018 09:24 19,9 C 15,0 C 15,8 C 71 % 47 % 1019 hPa 0,0 l/m 0,6 km/h (0 Bft) 0 min 0 min
15.06.2018 09:27 20,0 C 15,0 C 15,9 C 73 % 48 % 1019 hPa 0,0 l/m 1,0 km/h (0 Bft) 0 min 0 min
15.06.2018 09:30 20,0 C 15,0 C 15,9 C 72 % 48 % 1019 hPa 0,0 l/m 3,0 km/h (1 Bft) 0 min 0 min
15.06.2018 09:33 20,0 C 15,2 C 16,0 C 71 % 48 % 1019 hPa 0,0 l/m 4,8 km/h (1 Bft) 0 min 0 min
15.06.2018 09:36 20,0 C 15,2 C 16,0 C 71 % 49 % 1019 hPa 0,0 l/m 3,0 km/h (1 Bft) 0 min 0 min
15.06.2018 09:39 20,0 C 15,4 C 16,1 C 72 % 50 % 1019 hPa 0,0 l/m 0,6 km/h (0 Bft) 0 min 0 min
15.06.2018 09:42 20,0 C 15,4 C 16,1 C 70 % 52 % 1019 hPa 0,0 l/m 0,0 km/h (0 Bft) 3 min 0 min
15.06.2018 09:45 20,0 C 15,5 C 16,1 C 69 % 55 % 1019 hPa 0,0 l/m 0,0 km/h (0 Bft) 3 min 0 min
15.06.2018 09:48 20,0 C 15,6 C 16,2 C 71 % 55 % 1019 hPa 0,0 l/m 0,6 km/h (0 Bft) 3 min 0 min
15.06.2018 09:51 20,0 C 15,8 C 16,2 C 69 % 59 % 1019 hPa 0,0 l/m 2,8 km/h (1 Bft) 3 min 0 min
15.06.2018 09:54 20,1 C 16,0 C 16,4 C 71 % 59 % 1019 hPa 0,0 l/m 2,7 km/h (1 Bft) 3 min 0 min
15.06.2018 09:57 20,1 C 16,1 C 16,4 C 69 % 58 % 1019 hPa 0,0 l/m 1,9 km/h (1 Bft) 3 min 0 min
15.06.2018 10:00 20,1 C 16,2 C 16,4 C 70 % 58 % 1019 hPa 0,0 l/m 0,7 km/h (0 Bft) 3 min 0 min
15.06.2018 10:03 20,1 C 16,3 C 16,5 C 69 % 62 % 1019 hPa 0,0 l/m 0,5 km/h (0 Bft) 3 min 0 min
15.06.2018 10:06 20,1 C 16,4 C 16,6 C 67 % 71 % 1019 hPa 0,0 l/m 6,6 km/h (2 Bft) 3 min 0 min
15.06.2018 10:09 20,1 C 16,7 C 16,7 C 67 % 71 % 1019 hPa 0,0 l/m 4,9 km/h (1 Bft) 3 min 0 min
15.06.2018 10:12 20,1 C 16,7 C 16,7 C 64 % 63 % 1019 hPa 0,0 l/m 4,9 km/h (1 Bft) 3 min 0 min
15.06.2018 10:15 20,1 C 16,8 C 16,8 C 66 % 59 % 1019 hPa 0,0 l/m 0,4 km/h (0 Bft) 3 min 0 min
15.06.2018 10:18 20,1 C 17,0 C 16,8 C 67 % 59 % 1019 hPa 0,0 l/m 0,3 km/h (0 Bft) 3 min 0 min
15.06.2018 10:21 20,1 C 17,0 C 16,9 C 67 % 61 % 1019 hPa 0,0 l/m 5,1 km/h (1 Bft) 3 min 0 min
15.06.2018 10:24 20,1 C 17,0 C 17,0 C 63 % 60 % 1019 hPa 0,0 l/m 5,8 km/h (2 Bft) 3 min 0 min
15.06.2018 10:27 20,1 C 17,0 C 17,0 C 64 % 64 % 1019 hPa 0,0 l/m 1,8 km/h (1 Bft) 3 min 0 min
15.06.2018 10:30 20,1 C 17,2 C 17,2 C 62 % 73 % 1019 hPa 0,0 l/m 7,0 km/h (2 Bft) 3 min 0 min
15.06.2018 10:33 20,1 C 17,8 C 17,3 C 62 % 79 % 1019 hPa 0,0 l/m 2,8 km/h (1 Bft) 3 min 0 min
15.06.2018 10:36 20,2 C 18,2 C 17,3 C 58 % 78 % 1019 hPa 0,0 l/m 6,3 km/h (2 Bft) 3 min 0 min
15.06.2018 10:39 20,2 C 17,8 C 17,2 C 58 % 75 % 1019 hPa 0,0 l/m 6,1 km/h (2 Bft) 3 min 0 min
15.06.2018 10:42 20,1 C 18,0 C 17,3 C 60 % 75 % 1019 hPa 0,0 l/m 2,3 km/h (1 Bft) 3 min 0 min
15.06.2018 10:45 20,2 C 17,9 C 17,3 C 57 % 71 % 1019 hPa 0,0 l/m 6,5 km/h (2 Bft) 3 min 0 min
15.06.2018 10:48 20,2 C 18,5 C 17,6 C 58 % 71 % 1019 hPa 0,0 l/m 3,3 km/h (1 Bft) 3 min 0 min
15.06.2018 10:51 20,2 C 18,7 C 17,6 C 58 % 71 % 1019 hPa 0,0 l/m 1,6 km/h (1 Bft) 3 min 0 min
15.06.2018 10:54 20,2 C 18,8 C 17,5 C 55 % 62 % 1019 hPa 0,0 l/m 7,9 km/h (2 Bft) 3 min 0 min
15.06.2018 10:57 20,2 C 18,7 C 17,6 C 58 % 73 % 1019 hPa 0,0 l/m 2,9 km/h (1 Bft) 3 min 0 min
15.06.2018 11:00 20,2 C 18,9 C 17,6 C 56 % 67 % 1019 hPa 0,0 l/m 2,1 km/h (1 Bft) 3 min 0 min
15.06.2018 11:03 20,2 C 18,8 C 17,9 C 55 % 77 % 1019 hPa 0,0 l/m 4,1 km/h (1 Bft) 3 min 0 min
15.06.2018 11:06 20,2 C 19,0 C 17,9 C 56 % 43 % 1019 hPa 0,0 l/m 6,9 km/h (2 Bft) 0 min 0 min
15.06.2018 11:09 20,2 C 19,1 C 17,8 C 55 % 43 % 1019 hPa 0,0 l/m 6,9 km/h (2 Bft) 0 min 0 min
15.06.2018 11:12 20,2 C 19,0 C 17,8 C 56 % 76 % 1019 hPa 0,0 l/m 5,4 km/h (1 Bft) 3 min 0 min
15.06.2018 11:15 20,2 C 19,1 C 17,8 C 53 % 76 % 1019 hPa 0,0 l/m 4,1 km/h (1 Bft) 3 min 0 min
15.06.2018 11:18 20,2 C 19,1 C 17,9 C 48 % 77 % 1019 hPa 0,0 l/m 3,7 km/h (1 Bft) 3 min 0 min
15.06.2018 11:21 20,2 C 19,2 C 17,9 C 53 % 77 % 1019 hPa 0,0 l/m 4,0 km/h (1 Bft) 3 min 0 min
15.06.2018 11:24 20,2 C 19,4 C 18,2 C 49 % 78 % 1019 hPa 0,0 l/m 7,8 km/h (2 Bft) 3 min 0 min
15.06.2018 11:27 20,2 C 19,4 C 18,0 C 49 % 78 % 1019 hPa 0,0 l/m 9,2 km/h (2 Bft) 3 min 0 min
15.06.2018 11:30 20,2 C 19,5 C 18,2 C 53 % 77 % 1019 hPa 0,0 l/m 10,0 km/h (2 Bft) 3 min 0 min
15.06.2018 11:33 20,2 C 19,6 C 18,3 C 45 % 67 % 1019 hPa 0,0 l/m 5,5 km/h (1 Bft) 3 min 0 min
15.06.2018 11:36 20,2 C 19,0 C 18,2 C 43 % 78 % 1019 hPa 0,0 l/m 3,0 km/h (1 Bft) 3 min 0 min
15.06.2018 11:39 20,2 C 19,0 C 18,3 C 45 % 78 % 1019 hPa 0,0 l/m 4,2 km/h (1 Bft) 3 min 0 min
15.06.2018 11:42 20,3 C 19,2 C 18,3 C 45 % 78 % 1019 hPa 0,0 l/m 4,5 km/h (1 Bft) 3 min 0 min
15.06.2018 11:45 20,3 C 19,2 C 18,5 C 45 % 78 % 1019 hPa 0,0 l/m 6,1 km/h (2 Bft) 3 min 0 min
15.06.2018 11:48 20,2 C 19,4 C 18,7 C 48 % 75 % 1019 hPa 0,0 l/m 10,5 km/h (2 Bft) 3 min 0 min
15.06.2018 11:51 20,3 C 19,4 C 18,5 C 48 % 78 % 1019 hPa 0,0 l/m 8,7 km/h (2 Bft) 3 min 0 min
15.06.2018 11:54 20,3 C 19,5 C 18,6 C 45 % 77 % 1019 hPa 0,0 l/m 0,9 km/h (0 Bft) 3 min 0 min
15.06.2018 11:57 20,3 C 19,6 C 18,7 C 42 % 42 % 1019 hPa 0,0 l/m 5,9 km/h (2 Bft) 0 min 0 min
15.06.2018 12:00 20,3 C 19,6 C 18,6 C 44 % 78 % 1019 hPa 0,0 l/m 5,6 km/h (1 Bft) 3 min 0 min
15.06.2018 12:03 20,3 C 19,8 C 18,7 C 42 % 78 % 1019 hPa 0,0 l/m 7,9 km/h (2 Bft) 3 min 0 min
15.06.2018 12:06 20,3 C 19,9 C 18,7 C 45 % 78 % 1019 hPa 0,0 l/m 1,3 km/h (1 Bft) 3 min 0 min
15.06.2018 12:09 20,3 C 20,1 C 18,8 C 45 % 78 % 1019 hPa 0,0 l/m 7,1 km/h (2 Bft) 3 min 0 min
15.06.2018 12:12 20,3 C 20,1 C 18,9 C 45 % 78 % 1019 hPa 0,0 l/m 6,2 km/h (2 Bft) 3 min 0 min
15.06.2018 12:15 20,3 C 20,4 C 18,9 C 44 % 79 % 1019 hPa 0,0 l/m 4,0 km/h (1 Bft) 3 min 0 min
15.06.2018 12:18 20,3 C 20,4 C 18,9 C 46 % 78 % 1019 hPa 0,0 l/m 3,6 km/h (1 Bft) 3 min 0 min
15.06.2018 12:21 20,3 C 20,3 C 18,9 C 47 % 79 % 1019 hPa 0,0 l/m 8,1 km/h (2 Bft) 3 min 0 min
15.06.2018 12:24 20,3 C 20,1 C 18,9 C 46 % 79 % 1019 hPa 0,0 l/m 4,7 km/h (1 Bft) 3 min 0 min
15.06.2018 12:27 20,3 C 20,1 C 19,0 C 46 % 79 % 1019 hPa 0,0 l/m 5,3 km/h (1 Bft) 3 min 0 min
15.06.2018 12:30 20,3 C 20,0 C 19,1 C 44 % 59 % 1019 hPa 0,0 l/m 6,8 km/h (2 Bft) 3 min 0 min
15.06.2018 12:33 20,3 C 20,2 C 19,1 C 45 % 79 % 1019 hPa 0,0 l/m 3,7 km/h (1 Bft) 3 min 0 min
15.06.2018 12:36 20,4 C 20,4 C 19,2 C 44 % 70 % 1019 hPa 0,0 l/m 5,6 km/h (1 Bft) 3 min 0 min
15.06.2018 12:39 20,4 C 20,4 C 19,2 C 44 % 79 % 1019 hPa 0,0 l/m 7,2 km/h (2 Bft) 3 min 0 min
15.06.2018 12:42 20,4 C 20,5 C 19,2 C 46 % 65 % 1019 hPa 0,0 l/m 9,6 km/h (2 Bft) 3 min 0 min
15.06.2018 12:45 20,4 C 20,5 C 19,3 C 46 % 65 % 1019 hPa 0,0 l/m 3,1 km/h (1 Bft) 3 min 0 min
15.06.2018 12:48 20,4 C 19,9 C 19,2 C 50 % 62 % 1019 hPa 0,0 l/m 7,5 km/h (2 Bft) 3 min 0 min
15.06.2018 12:51 20,4 C 20,0 C 19,2 C 46 % 76 % 1019 hPa 0,0 l/m 9,2 km/h (2 Bft) 3 min 0 min
15.06.2018 12:54 20,4 C 20,0 C 19,2 C 46 % 79 % 1019 hPa 0,0 l/m 10,1 km/h (2 Bft) 3 min 0 min
15.06.2018 12:57 20,4 C 20,1 C 19,2 C 46 % 63 % 1019 hPa 0,0 l/m 6,5 km/h (2 Bft) 3 min 0 min
15.06.2018 13:00 20,3 C 20,2 C 19,2 C 49 % 79 % 1019 hPa 0,0 l/m 5,4 km/h (1 Bft) 3 min 0 min
15.06.2018 13:03 20,4 C 20,2 C 19,3 C 48 % 79 % 1019 hPa 0,0 l/m 5,7 km/h (1 Bft) 3 min 0 min
15.06.2018 13:06 20,4 C 20,2 C 19,4 C 48 % 79 % 1019 hPa 0,0 l/m 5,7 km/h (1 Bft) 3 min 0 min
15.06.2018 13:09 20,4 C 20,5 C 19,4 C 51 % 79 % 1019 hPa 0,0 l/m 6,0 km/h (2 Bft) 3 min 0 min
15.06.2018 13:12 20,4 C 20,8 C 19,5 C 50 % 79 % 1019 hPa 0,0 l/m 4,2 km/h (1 Bft) 3 min 0 min
15.06.2018 13:15 20,4 C 21,0 C 19,7 C 47 % 79 % 1019 hPa 0,0 l/m 3,6 km/h (1 Bft) 3 min 0 min
15.06.2018 13:18 20,4 C 21,0 C 19,6 C 42 % 79 % 1019 hPa 0,0 l/m 3,6 km/h (1 Bft) 3 min 0 min
15.06.2018 13:21 20,4 C 20,8 C 19,6 C 43 % 79 % 1019 hPa 0,0 l/m 3,9 km/h (1 Bft) 3 min 0 min
15.06.2018 13:24 20,4 C 20,9 C 19,9 C 45 % 70 % 1019 hPa 0,0 l/m 8,2 km/h (2 Bft) 3 min 0 min
15.06.2018 13:27 20,4 C 20,8 C 19,9 C 47 % 60 % 1019 hPa 0,0 l/m 7,2 km/h (2 Bft) 3 min 0 min
15.06.2018 13:30 20,4 C 20,6 C 19,7 C 46 % 57 % 1019 hPa 0,0 l/m 9,7 km/h (2 Bft) 3 min 0 min
15.06.2018 13:33 20,4 C 20,4 C 19,6 C 45 % 59 % 1019 hPa 0,0 l/m 6,1 km/h (2 Bft) 3 min 0 min
15.06.2018 13:36 20,4 C 20,1 C 19,6 C 48 % 79 % 1019 hPa 0,0 l/m 0,2 km/h (0 Bft) 3 min 0 min
15.06.2018 13:39 20,4 C 20,2 C 19,8 C 46 % 55 % 1019 hPa 0,0 l/m 5,2 km/h (1 Bft) 3 min 0 min
15.06.2018 13:42 20,4 C 20,1 C 19,7 C 46 % 72 % 1019 hPa 0,0 l/m 8,7 km/h (2 Bft) 3 min 0 min
15.06.2018 13:45 20,4 C 20,2 C 20,0 C 45 % 79 % 1019 hPa 0,0 l/m 7,9 km/h (2 Bft) 3 min 0 min
15.06.2018 13:48 20,4 C 20,4 C 19,7 C 43 % 79 % 1019 hPa 0,0 l/m 7,4 km/h (2 Bft) 3 min 0 min
15.06.2018 13:51 20,4 C 20,5 C 19,7 C 46 % 79 % 1019 hPa 0,0 l/m 7,4 km/h (2 Bft) 3 min 0 min
15.06.2018 13:54 20,4 C 20,5 C 20,2 C 46 % 78 % 1019 hPa 0,0 l/m 2,2 km/h (1 Bft) 3 min 0 min
15.06.2018 13:57 20,4 C 20,4 C 20,2 C 42 % 78 % 1018 hPa 0,0 l/m 2,2 km/h (1 Bft) 3 min 0 min
15.06.2018 14:00 20,4 C 20,5 C 19,9 C 53 % 78 % 1018 hPa 0,0 l/m 3,2 km/h (1 Bft) 3 min 0 min
15.06.2018 14:03 20,4 C 20,6 C 19,8 C 47 % 41 % 1018 hPa 0,0 l/m 5,4 km/h (1 Bft) 0 min 0 min
15.06.2018 14:06 20,4 C 20,6 C 19,9 C 43 % 78 % 1018 hPa 0,0 l/m 4,8 km/h (1 Bft) 3 min 0 min
15.06.2018 14:09 20,4 C 20,8 C 20,1 C 45 % 78 % 1018 hPa 0,0 l/m 6,1 km/h (2 Bft) 3 min 0 min
15.06.2018 14:12 20,4 C 20,8 C 20,0 C 45 % 78 % 1018 hPa 0,0 l/m 5,2 km/h (1 Bft) 3 min 0 min
15.06.2018 14:15 20,4 C 21,1 C 19,9 C 52 % 79 % 1018 hPa 0,0 l/m 7,4 km/h (2 Bft) 3 min 0 min
15.06.2018 14:18 20,4 C 21,0 C 19,9 C 43 % 79 % 1018 hPa 0,0 l/m 5,5 km/h (1 Bft) 3 min 0 min
15.06.2018 14:21 20,4 C 21,1 C 19,9 C 45 % 78 % 1018 hPa 0,0 l/m 1,3 km/h (1 Bft) 3 min 0 min
15.06.2018 14:24 20,4 C 21,0 C 20,0 C 47 % 78 % 1018 hPa 0,0 l/m 6,7 km/h (2 Bft) 3 min 0 min
15.06.2018 14:27 20,4 C 21,2 C 20,3 C 45 % 79 % 1018 hPa 0,0 l/m 12,0 km/h (2 Bft) 3 min 0 min
15.06.2018 14:30 20,4 C 21,4 C 20,3 C 44 % 79 % 1018 hPa 0,0 l/m 8,0 km/h (2 Bft) 3 min 0 min
15.06.2018 14:33 20,4 C 21,5 C 20,2 C 44 % 79 % 1018 hPa 0,0 l/m 8,0 km/h (2 Bft) 3 min 0 min
15.06.2018 14:36 20,4 C 21,5 C 20,3 C 43 % 79 % 1018 hPa 0,0 l/m 11,3 km/h (2 Bft) 3 min 0 min
15.06.2018 14:39 20,4 C 21,6 C 20,2 C 44 % 79 % 1018 hPa 0,0 l/m 8,5 km/h (2 Bft) 3 min 0 min
15.06.2018 14:42 20,4 C 21,6 C 20,3 C 45 % 79 % 1018 hPa 0,0 l/m 9,0 km/h (2 Bft) 3 min 0 min
15.06.2018 14:45 20,4 C 21,6 C 20,2 C 44 % 79 % 1018 hPa 0,0 l/m 7,0 km/h (2 Bft) 3 min 0 min
15.06.2018 14:48 20,4 C 21,4 C 20,2 C 43 % 79 % 1018 hPa 0,0 l/m 1,3 km/h (1 Bft) 3 min 0 min
15.06.2018 14:51 20,4 C 21,5 C 20,2 C 46 % 79 % 1018 hPa 0,0 l/m 3,1 km/h (1 Bft) 3 min 0 min
15.06.2018 14:54 20,5 C 21,7 C 20,4 C 46 % 79 % 1018 hPa 0,0 l/m 3,9 km/h (1 Bft) 3 min 0 min
15.06.2018 14:57 20,4 C 21,9 C 20,6 C 42 % 79 % 1018 hPa 0,0 l/m 6,5 km/h (2 Bft) 3 min 0 min
15.06.2018 15:00 20,5 C 22,1 C 20,6 C 45 % 79 % 1018 hPa 0,0 l/m 6,5 km/h (2 Bft) 3 min 0 min
15.06.2018 15:03 20,5 C 22,0 C 20,6 C 43 % 79 % 1018 hPa 0,0 l/m 3,3 km/h (1 Bft) 3 min 0 min
15.06.2018 15:06 20,5 C 22,0 C 20,6 C 47 % 79 % 1018 hPa 0,0 l/m 5,4 km/h (1 Bft) 3 min 0 min
15.06.2018 15:09 20,5 C 21,7 C 20,6 C 44 % 43 % 1018 hPa 0,0 l/m 3,9 km/h (1 Bft) 0 min 0 min
15.06.2018 15:12 20,5 C 21,5 C 20,4 C 45 % 42 % 1018 hPa 0,0 l/m 4,1 km/h (1 Bft) 0 min 0 min
15.06.2018 15:15 20,5 C 21,4 C 20,3 C 43 % 42 % 1018 hPa 0,0 l/m 9,2 km/h (2 Bft) 0 min 0 min
15.06.2018 15:18 20,5 C 21,2 C 20,2 C 44 % 41 % 1018 hPa 0,0 l/m 1,9 km/h (1 Bft) 0 min 0 min
15.06.2018 15:21 20,5 C 21,2 C 20,3 C 46 % 80 % 1018 hPa 0,0 l/m 6,9 km/h (2 Bft) 3 min 0 min
15.06.2018 15:24 20,6 C 21,4 C 20,3 C 44 % 80 % 1018 hPa 0,0 l/m 5,0 km/h (1 Bft) 3 min 0 min
15.06.2018 15:27 20,5 C 21,4 C 20,8 C 43 % 60 % 1018 hPa 0,0 l/m 7,8 km/h (2 Bft) 3 min 0 min
15.06.2018 15:30 20,5 C 21,4 C 20,5 C 43 % 79 % 1018 hPa 0,0 l/m 0,8 km/h (0 Bft) 3 min 0 min
15.06.2018 15:33 20,6 C 21,4 C 20,4 C 45 % 79 % 1018 hPa 0,0 l/m 8,0 km/h (2 Bft) 3 min 0 min
15.06.2018 15:36 20,6 C 21,5 C 20,4 C 43 % 51 % 1018 hPa 0,0 l/m 7,7 km/h (2 Bft) 0 min 0 min
15.06.2018 15:39 20,6 C 21,5 C 20,4 C 43 % 79 % 1018 hPa 0,0 l/m 8,3 km/h (2 Bft) 3 min 0 min
15.06.2018 15:42 20,6 C 21,7 C 20,5 C 44 % 79 % 1018 hPa 0,0 l/m 5,6 km/h (1 Bft) 3 min 0 min
15.06.2018 15:45 20,6 C 21,6 C 20,5 C 44 % 79 % 1018 hPa 0,0 l/m 0,3 km/h (0 Bft) 3 min 0 min
15.06.2018 15:48 20,6 C 21,6 C 20,4 C 44 % 79 % 1018 hPa 0,0 l/m 0,0 km/h (0 Bft) 3 min 0 min
15.06.2018 15:51 20,6 C 21,9 C 20,4 C 47 % 78 % 1018 hPa 0,0 l/m 0,1 km/h (0 Bft) 3 min 0 min
15.06.2018 15:54 20,6 C 22,0 C 20,4 C 42 % 79 % 1018 hPa 0,0 l/m 6,5 km/h (2 Bft) 3 min 0 min
15.06.2018 15:57 20,6 C 22,1 C 20,5 C 46 % 78 % 1018 hPa 0,0 l/m 1,7 km/h (1 Bft) 3 min 0 min
15.06.2018 16:00 20,6 C 22,4 C 21,1 C 44 % 79 % 1018 hPa 0,0 l/m 7,4 km/h (2 Bft) 3 min 0 min
15.06.2018 16:03 20,6 C 22,5 C 21,1 C 46 % 79 % 1018 hPa 0,0 l/m 11,8 km/h (2 Bft) 3 min 0 min
15.06.2018 16:06 20,7 C 22,5 C 20,6 C 42 % 78 % 1018 hPa 0,0 l/m 6,9 km/h (2 Bft) 3 min 0 min
15.06.2018 16:09 20,6 C 22,5 C 20,7 C 45 % 78 % 1018 hPa 0,0 l/m 9,8 km/h (2 Bft) 3 min 0 min
15.06.2018 16:12 20,7 C 22,3 C 20,6 C 41 % 78 % 1018 hPa 0,0 l/m 6,7 km/h (2 Bft) 3 min 0 min
15.06.2018 16:15 20,7 C 22,2 C 20,7 C 45 % 78 % 1018 hPa 0,0 l/m 7,0 km/h (2 Bft) 3 min 0 min
15.06.2018 16:18 20,7 C 22,4 C 20,5 C 46 % 78 % 1018 hPa 0,0 l/m 5,7 km/h (1 Bft) 3 min 0 min
15.06.2018 16:21 20,7 C 22,6 C 21,1 C 44 % 78 % 1018 hPa 0,0 l/m 4,5 km/h (1 Bft) 3 min 0 min
15.06.2018 16:24 20,7 C 22,7 C 20,9 C 42 % 78 % 1018 hPa 0,0 l/m 5,2 km/h (1 Bft) 3 min 0 min
15.06.2018 16:27 20,7 C 22,7 C 21,2 C 44 % 79 % 1018 hPa 0,0 l/m 6,8 km/h (2 Bft) 3 min 0 min
15.06.2018 16:30 20,8 C 22,7 C 21,2 C 41 % 79 % 1018 hPa 0,0 l/m 7,6 km/h (2 Bft) 3 min 0 min
15.06.2018 16:33 20,8 C 22,7 C 20,7 C 41 % 79 % 1018 hPa 0,0 l/m 12,6 km/h (3 Bft) 3 min 0 min
15.06.2018 16:36 20,8 C 22,6 C 20,7 C 43 % 78 % 1018 hPa 0,0 l/m 6,7 km/h (2 Bft) 3 min 0 min
15.06.2018 16:39 20,9 C 22,6 C 20,9 C 43 % 78 % 1018 hPa 0,0 l/m 5,6 km/h (1 Bft) 3 min 0 min
15.06.2018 16:42 20,9 C 22,3 C 20,9 C 41 % 52 % 1018 hPa 0,0 l/m 0,9 km/h (0 Bft) 3 min 0 min
15.06.2018 16:45 20,8 C 22,2 C 20,9 C 41 % 79 % 1018 hPa 0,0 l/m 1,3 km/h (1 Bft) 3 min 0 min
15.06.2018 16:48 20,8 C 22,2 C 20,9 C 42 % 78 % 1018 hPa 0,0 l/m 6,3 km/h (2 Bft) 3 min 0 min
15.06.2018 16:51 20,8 C 22,2 C 20,9 C 45 % 78 % 1018 hPa 0,0 l/m 0,6 km/h (0 Bft) 3 min 0 min
15.06.2018 16:54 20,8 C 22,2 C 20,9 C 43 % 78 % 1018 hPa 0,0 l/m 0,6 km/h (0 Bft) 3 min 0 min
15.06.2018 16:57 20,8 C 22,4 C 20,9 C 45 % 51 % 1018 hPa 0,0 l/m 5,3 km/h (1 Bft) 3 min 0 min
15.06.2018 17:00 20,8 C 22,3 C 21,0 C 42 % 78 % 1018 hPa 0,0 l/m 4,0 km/h (1 Bft) 3 min 0 min
15.06.2018 17:03 20,8 C 22,3 C 21,0 C 45 % 78 % 1018 hPa 0,0 l/m 7,6 km/h (2 Bft) 3 min 0 min
15.06.2018 17:06 20,8 C 22,4 C 20,8 C 43 % 78 % 1018 hPa 0,0 l/m 6,1 km/h (2 Bft) 3 min 0 min
15.06.2018 17:09 20,8 C 22,5 C 20,9 C 43 % 78 % 1018 hPa 0,0 l/m 5,9 km/h (2 Bft) 3 min 0 min
15.06.2018 17:12 20,8 C 22,5 C 21,0 C 42 % 78 % 1018 hPa 0,0 l/m 4,8 km/h (1 Bft) 3 min 0 min
15.06.2018 17:15 20,7 C 22,7 C 20,8 C 42 % 78 % 1018 hPa 0,0 l/m 6,3 km/h (2 Bft) 3 min 0 min
15.06.2018 17:18 20,7 C 22,7 C 21,1 C 44 % 78 % 1018 hPa 0,0 l/m 5,5 km/h (1 Bft) 3 min 0 min
15.06.2018 17:21 20,8 C 22,7 C 21,1 C 42 % 78 % 1018 hPa 0,0 l/m 7,2 km/h (2 Bft) 3 min 0 min
15.06.2018 17:24 20,7 C 22,7 C 21,0 C 41 % 78 % 1018 hPa 0,0 l/m 0,3 km/h (0 Bft) 3 min 0 min
15.06.2018 17:27 20,7 C 22,6 C 20,9 C 45 % 78 % 1018 hPa 0,0 l/m 0,3 km/h (0 Bft) 3 min 0 min
15.06.2018 17:30 20,7 C 22,6 C 20,9 C 45 % 77 % 1018 hPa 0,0 l/m 1,2 km/h (1 Bft) 3 min 0 min
15.06.2018 17:33 20,8 C 22,8 C 21,0 C 48 % 78 % 1018 hPa 0,0 l/m 3,8 km/h (1 Bft) 3 min 0 min
15.06.2018 17:36 20,8 C 22,8 C 21,0 C 44 % 78 % 1017 hPa 0,0 l/m 4,4 km/h (1 Bft) 3 min 0 min
15.06.2018 17:39 20,8 C 22,8 C 21,0 C 41 % 74 % 1018 hPa 0,0 l/m 4,0 km/h (1 Bft) 3 min 0 min
15.06.2018 17:42 20,8 C 22,8 C 20,9 C 43 % 35 % 1017 hPa 0,0 l/m 2,2 km/h (1 Bft) 0 min 0 min
15.06.2018 17:45 20,8 C 22,8 C 20,8 C 43 % 33 % 1017 hPa 0,0 l/m 7,6 km/h (2 Bft) 0 min 0 min
15.06.2018 17:48 20,8 C 22,4 C 20,7 C 42 % 72 % 1017 hPa 0,0 l/m 3,7 km/h (1 Bft) 3 min 0 min
15.06.2018 17:51 20,8 C 22,3 C 20,8 C 43 % 68 % 1017 hPa 0,0 l/m 2,7 km/h (1 Bft) 3 min 0 min
15.06.2018 17:54 20,8 C 22,2 C 20,7 C 43 % 33 % 1017 hPa 0,0 l/m 1,2 km/h (1 Bft) 0 min 0 min
15.06.2018 17:57 20,8 C 22,2 C 20,8 C 44 % 76 % 1017 hPa 0,0 l/m 1,2 km/h (1 Bft) 3 min 0 min
15.06.2018 18:00 20,8 C 22,2 C 21,0 C 43 % 38 % 1017 hPa 0,0 l/m 0,6 km/h (0 Bft) 3 min 0 min
15.06.2018 18:03 20,8 C 22,3 C 20,8 C 45 % 77 % 1017 hPa 0,0 l/m 0,6 km/h (0 Bft) 3 min 0 min
15.06.2018 18:06 20,8 C 22,4 C 21,0 C 43 % 75 % 1017 hPa 0,0 l/m 5,8 km/h (2 Bft) 3 min 0 min
15.06.2018 18:09 20,8 C 22,4 C 20,9 C 45 % 76 % 1017 hPa 0,0 l/m 3,7 km/h (1 Bft) 3 min 0 min
15.06.2018 18:12 20,8 C 22,7 C 20,9 C 43 % 76 % 1017 hPa 0,0 l/m 5,0 km/h (1 Bft) 3 min 0 min
15.06.2018 18:15 20,9 C 22,8 C 21,2 C 45 % 76 % 1017 hPa 0,0 l/m 6,8 km/h (2 Bft) 3 min 0 min
15.06.2018 18:18 20,9 C 22,9 C 21,1 C 43 % 76 % 1017 hPa 0,0 l/m 10,4 km/h (2 Bft) 3 min 0 min
15.06.2018 18:21 21,0 C 22,8 C 21,3 C 40 % 77 % 1017 hPa 0,0 l/m 1,1 km/h (1 Bft) 3 min 0 min
15.06.2018 18:24 21,0 C 22,7 C 21,1 C 43 % 65 % 1017 hPa 0,0 l/m 0,3 km/h (0 Bft) 3 min 0 min
15.06.2018 18:27 20,9 C 22,8 C 21,2 C 45 % 74 % 1017 hPa 0,0 l/m 5,9 km/h (2 Bft) 3 min 0 min
15.06.2018 18:30 20,9 C 22,7 C 21,1 C 41 % 48 % 1017 hPa 0,0 l/m 4,6 km/h (1 Bft) 3 min 0 min
15.06.2018 18:33 20,9 C 22,5 C 21,1 C 40 % 62 % 1017 hPa 0,0 l/m 0,6 km/h (0 Bft) 3 min 0 min
15.06.2018 18:36 20,9 C 22,4 C 21,1 C 48 % 42 % 1017 hPa 0,0 l/m 0,5 km/h (0 Bft) 3 min 0 min
15.06.2018 18:39 20,9 C 22,3 C 21,0 C 47 % 41 % 1017 hPa 0,0 l/m 2,5 km/h (1 Bft) 3 min 0 min
15.06.2018 18:42 20,9 C 22,3 C 21,0 C 45 % 35 % 1017 hPa 0,0 l/m 2,5 km/h (1 Bft) 3 min 0 min
15.06.2018 18:45 20,9 C 22,3 C 21,0 C 45 % 29 % 1017 hPa 0,0 l/m 4,2 km/h (1 Bft) 3 min 0 min
15.06.2018 18:48 20,9 C 21,9 C 21,2 C 43 % 29 % 1017 hPa 0,0 l/m 1,1 km/h (1 Bft) 3 min 0 min
15.06.2018 18:51 20,9 C 21,8 C 21,2 C 44 % 28 % 1017 hPa 0,0 l/m 1,1 km/h (1 Bft) 3 min 0 min
15.06.2018 18:54 20,9 C 21,8 C 21,0 C 46 % 30 % 1017 hPa 0,0 l/m 2,6 km/h (1 Bft) 3 min 0 min
15.06.2018 18:57 20,8 C 21,7 C 21,0 C 46 % 48 % 1017 hPa 0,0 l/m 4,7 km/h (1 Bft) 3 min 0 min
15.06.2018 19:00 20,8 C 21,6 C 20,9 C 47 % 30 % 1017 hPa 0,0 l/m 1,9 km/h (1 Bft) 3 min 0 min
15.06.2018 19:03 20,8 C 21,6 C 20,9 C 46 % 39 % 1017 hPa 0,0 l/m 3,1 km/h (1 Bft) 3 min 0 min
15.06.2018 19:06 20,8 C 21,5 C 20,9 C 45 % 50 % 1017 hPa 0,0 l/m 0,9 km/h (0 Bft) 3 min 0 min
15.06.2018 19:09 20,8 C 21,5 C 20,9 C 46 % 31 % 1017 hPa 0,0 l/m 0,1 km/h (0 Bft) 3 min 0 min
15.06.2018 19:12 20,9 C 21,5 C 20,9 C 45 % 22 % 1018 hPa 0,0 l/m 0,3 km/h (0 Bft) 3 min 0 min
15.06.2018 19:15 20,9 C 21,5 C 21,0 C 45 % 22 % 1017 hPa 0,0 l/m 2,7 km/h (1 Bft) 3 min 0 min
15.06.2018 19:18 20,9 C 21,5 C 21,0 C 47 % 22 % 1017 hPa 0,0 l/m 2,4 km/h (1 Bft) 3 min 0 min
15.06.2018 19:21 20,9 C 21,6 C 20,9 C 46 % 22 % 1017 hPa 0,0 l/m 0,3 km/h (0 Bft) 3 min 0 min
15.06.2018 19:24 20,8 C 21,6 C 20,8 C 47 % 23 % 1017 hPa 0,0 l/m 0,8 km/h (0 Bft) 3 min 0 min
15.06.2018 19:27 20,9 C 21,6 C 21,0 C 46 % 23 % 1017 hPa 0,0 l/m 3,0 km/h (1 Bft) 3 min 0 min
15.06.2018 19:30 20,9 C 21,6 C 21,0 C 46 % 24 % 1017 hPa 0,0 l/m 1,0 km/h (0 Bft) 3 min 0 min
15.06.2018 19:33 20,9 C 21,6 C 21,1 C 46 % 24 % 1017 hPa 0,0 l/m 4,8 km/h (1 Bft) 3 min 0 min
15.06.2018 19:36 20,9 C 21,6 C 21,0 C 46 % 23 % 1017 hPa 0,0 l/m 2,9 km/h (1 Bft) 3 min 0 min
15.06.2018 19:39 20,9 C 21,6 C 20,9 C 46 % 22 % 1017 hPa 0,0 l/m 2,9 km/h (1 Bft) 3 min 0 min
15.06.2018 19:42 20,9 C 21,6 C 21,0 C 46 % 21 % 1017 hPa 0,0 l/m 0,6 km/h (0 Bft) 3 min 0 min
15.06.2018 19:45 20,9 C 21,6 C 20,9 C 46 % 19 % 1017 hPa 0,0 l/m 0,8 km/h (0 Bft) 3 min 0 min
15.06.2018 19:48 21,0 C 21,6 C 21,0 C 45 % 18 % 1017 hPa 0,0 l/m 0,8 km/h (0 Bft) 3 min 0 min
15.06.2018 19:51 21,0 C 21,6 C 20,9 C 46 % 16 % 1017 hPa 0,0 l/m 0,6 km/h (0 Bft) 3 min 0 min
15.06.2018 19:54 21,0 C 21,6 C 20,8 C 46 % 15 % 1017 hPa 0,0 l/m 1,4 km/h (1 Bft) 3 min 0 min
15.06.2018 19:57 20,9 C 21,6 C 20,8 C 47 % 14 % 1017 hPa 0,0 l/m 0,0 km/h (0 Bft) 3 min 0 min
15.06.2018 20:00 20,9 C 21,6 C 20,8 C 46 % 13 % 1017 hPa 0,0 l/m 5,1 km/h (1 Bft) 3 min 0 min
15.06.2018 20:03 20,9 C 21,6 C 20,7 C 46 % 12 % 1017 hPa 0,0 l/m 0,3 km/h (0 Bft) 3 min 0 min
15.06.2018 20:06 21,0 C 21,6 C 20,8 C 47 % 12 % 1017 hPa 0,0 l/m 0,3 km/h (0 Bft) 3 min 0 min
15.06.2018 20:09 21,0 C 21,5 C 20,7 C 47 % 12 % 1017 hPa 0,0 l/m 2,5 km/h (1 Bft) 3 min 0 min
15.06.2018 20:12 21,0 C 21,5 C 20,9 C 46 % 11 % 1017 hPa 0,0 l/m 0,2 km/h (0 Bft) 3 min 0 min
15.06.2018 20:15 20,9 C 21,6 C 20,9 C 47 % 11 % 1017 hPa 0,0 l/m 1,3 km/h (1 Bft) 3 min 0 min
15.06.2018 20:18 20,9 C 21,5 C 21,0 C 47 % 10 % 1017 hPa 0,0 l/m 3,4 km/h (1 Bft) 3 min 0 min
15.06.2018 20:21 20,9 C 21,4 C 21,0 C 46 % 10 % 1018 hPa 0,0 l/m 4,3 km/h (1 Bft) 3 min 0 min
15.06.2018 20:24 20,9 C 21,4 C 21,0 C 47 % 10 % 1018 hPa 0,0 l/m 3,6 km/h (1 Bft) 3 min 0 min
15.06.2018 20:27 20,9 C 21,4 C 20,9 C 47 % 10 % 1018 hPa 0,0 l/m 2,8 km/h (1 Bft) 3 min 0 min
15.06.2018 20:30 20,9 C 21,3 C 20,9 C 48 % 9 % 1018 hPa 0,0 l/m 0,9 km/h (0 Bft) 3 min 0 min
15.06.2018 20:33 21,0 C 21,3 C 20,8 C 49 % 8 % 1018 hPa 0,0 l/m 2,4 km/h (1 Bft) 3 min 0 min
15.06.2018 20:36 20,9 C 21,3 C 20,7 C 49 % 7 % 1018 hPa 0,0 l/m 0,1 km/h (0 Bft) 3 min 0 min
15.06.2018 20:39 21,0 C 21,2 C 20,7 C 51 % 6 % 1018 hPa 0,0 l/m 0,4 km/h (0 Bft) 3 min 0 min
15.06.2018 20:42 20,9 C 21,0 C 20,7 C 52 % 6 % 1018 hPa 0,0 l/m 0,0 km/h (0 Bft) 3 min 0 min
15.06.2018 20:45 21,0 C 21,0 C 20,7 C 53 % 4 % 1018 hPa 0,0 l/m 0,0 km/h (0 Bft) 3 min 0 min
15.06.2018 20:48 21,0 C 21,0 C 20,6 C 53 % 3 % 1018 hPa 0,0 l/m 1,8 km/h (1 Bft) 3 min 0 min
15.06.2018 20:51 21,0 C 20,8 C 20,6 C 55 % 3 % 1018 hPa 0,0 l/m 0,7 km/h (0 Bft) 3 min 0 min
15.06.2018 20:54 21,0 C 20,8 C 20,6 C 55 % 3 % 1018 hPa 0,0 l/m 2,1 km/h (1 Bft) 3 min 0 min
15.06.2018 20:57 21,0 C 20,6 C 20,5 C 54 % 2 % 1018 hPa 0,0 l/m 2,0 km/h (1 Bft) 3 min 0 min
15.06.2018 21:00 21,0 C 20,4 C 20,5 C 56 % 2 % 1018 hPa 0,0 l/m 0,0 km/h (0 Bft) 0 min 0 min
15.06.2018 21:03 21,0 C 20,4 C 20,5 C 56 % 2 % 1018 hPa 0,0 l/m 0,0 km/h (0 Bft) 0 min 0 min
15.06.2018 21:06 21,0 C 20,2 C 20,4 C 59 % 1 % 1018 hPa 0,0 l/m 0,0 km/h (0 Bft) 0 min 0 min
15.06.2018 21:09 21,0 C 20,1 C 20,5 C 59 % 1 % 1018 hPa 0,0 l/m 0,0 km/h (0 Bft) 0 min 0 min
15.06.2018 21:12 21,0 C 20,0 C 20,3 C 58 % 1 % 1018 hPa 0,0 l/m 0,3 km/h (0 Bft) 0 min 0 min
15.06.2018 21:15 21,0 C 19,9 C 20,3 C 60 % 1 % 1018 hPa 0,0 l/m 0,0 km/h (0 Bft) 0 min 0 min
15.06.2018 21:18 21,0 C 19,7 C 20,3 C 59 % 1 % 1018 hPa 0,0 l/m 0,0 km/h (0 Bft) 0 min 0 min
15.06.2018 21:21 21,0 C 19,6 C 20,2 C 60 % 1 % 1018 hPa 0,0 l/m 0,0 km/h (0 Bft) 0 min 0 min
15.06.2018 21:24 21,0 C 19,6 C 20,3 C 60 % 0 % 1018 hPa 0,0 l/m 0,0 km/h (0 Bft) 0 min 0 min
15.06.2018 21:27 21,0 C 19,3 C 20,2 C 62 % 0 % 1018 hPa 0,0 l/m 0,0 km/h (0 Bft) 0 min 0 min
15.06.2018 21:30 21,0 C 19,2 C 20,2 C 63 % 0 % 1018 hPa 0,0 l/m 0,0 km/h (0 Bft) 0 min 0 min
15.06.2018 21:33 21,0 C 19,0 C 20,1 C 63 % 0 % 1018 hPa 0,0 l/m 0,0 km/h (0 Bft) 0 min 0 min
15.06.2018 21:36 21,0 C 18,9 C 20,1 C 64 % 0 % 1018 hPa 0,0 l/m 0,1 km/h (0 Bft) 0 min 0 min
15.06.2018 21:39 21,0 C 18,7 C 20,0 C 64 % 0 % 1018 hPa 0,0 l/m 0,0 km/h (0 Bft) 0 min 0 min
15.06.2018 21:42 21,0 C 18,6 C 19,9 C 65 % 0 % 1018 hPa 0,0 l/m 0,0 km/h (0 Bft) 0 min 0 min
15.06.2018 21:45 21,0 C 18,5 C 19,9 C 65 % 0 % 1018 hPa 0,0 l/m 0,0 km/h (0 Bft) 0 min 0 min
15.06.2018 21:48 21,0 C 18,5 C 19,8 C 65 % 0 % 1018 hPa 0,0 l/m 0,0 km/h (0 Bft) 0 min 0 min
15.06.2018 21:51 21,0 C 18,4 C 19,8 C 67 % 0 % 1018 hPa 0,0 l/m 0,0 km/h (0 Bft) 0 min 0 min
15.06.2018 21:54 21,0 C 18,3 C 19,8 C 67 % 0 % 1018 hPa 0,0 l/m 0,0 km/h (0 Bft) 0 min 0 min
15.06.2018 21:57 21,0 C 18,2 C 19,7 C 68 % 0 % 1018 hPa 0,0 l/m 0,0 km/h (0 Bft) 0 min 0 min
15.06.2018 22:00 21,0 C 18,2 C 19,8 C 70 % 0 % 1018 hPa 0,0 l/m 0,0 km/h (0 Bft) 0 min 0 min
15.06.2018 22:03 21,0 C 18,1 C 19,7 C 69 % 0 % 1018 hPa 0,0 l/m 0,0 km/h (0 Bft) 0 min 0 min
15.06.2018 22:06 21,0 C 18,0 C 19,7 C 71 % 0 % 1018 hPa 0,0 l/m 0,0 km/h (0 Bft) 0 min 0 min
15.06.2018 22:09 21,0 C 17,9 C 19,6 C 70 % 0 % 1018 hPa 0,0 l/m 0,0 km/h (0 Bft) 0 min 0 min
15.06.2018 22:12 21,0 C 17,8 C 19,5 C 70 % 0 % 1018 hPa 0,0 l/m 0,0 km/h (0 Bft) 0 min 0 min
15.06.2018 22:15 20,9 C 17,8 C 19,5 C 71 % 0 % 1018 hPa 0,0 l/m 0,0 km/h (0 Bft) 0 min 0 min
15.06.2018 22:18 20,9 C 17,6 C 19,4 C 73 % 0 % 1018 hPa 0,0 l/m 0,0 km/h (0 Bft) 0 min 0 min
15.06.2018 22:21 20,8 C 17,5 C 19,4 C 73 % 0 % 1018 hPa 0,0 l/m 0,0 km/h (0 Bft) 0 min 0 min
15.06.2018 22:24 20,8 C 17,4 C 19,4 C 73 % 0 % 1018 hPa 0,0 l/m 0,0 km/h (0 Bft) 0 min 0 min
15.06.2018 22:27 20,8 C 17,4 C 19,4 C 74 % 0 % 1018 hPa 0,0 l/m 0,0 km/h (0 Bft) 0 min 0 min
15.06.2018 22:30 20,8 C 17,3 C 19,3 C 73 % 0 % 1018 hPa 0,0 l/m 0,0 km/h (0 Bft) 0 min 0 min
15.06.2018 22:33 20,8 C 17,2 C 19,3 C 73 % 0 % 1018 hPa 0,0 l/m 0,0 km/h (0 Bft) 0 min 0 min
15.06.2018 22:36 20,7 C 17,2 C 19,3 C 74 % 0 % 1018 hPa 0,0 l/m 0,0 km/h (0 Bft) 0 min 0 min
15.06.2018 22:39 20,7 C 17,2 C 19,3 C 74 % 0 % 1018 hPa 0,0 l/m 0,0 km/h (0 Bft) 0 min 0 min
15.06.2018 22:42 20,7 C 17,2 C 19,3 C 74 % 0 % 1018 hPa 0,0 l/m 0,0 km/h (0 Bft) 0 min 0 min
15.06.2018 22:45 20,7 C 17,2 C 19,3 C 73 % 0 % 1018 hPa 0,0 l/m 0,0 km/h (0 Bft) 0 min 0 min
15.06.2018 22:48 20,7 C 17,2 C 19,2 C 73 % 0 % 1018 hPa 0,0 l/m 0,0 km/h (0 Bft) 0 min 0 min
15.06.2018 22:51 20,6 C 17,2 C 19,2 C 73 % 0 % 1018 hPa 0,0 l/m 0,0 km/h (0 Bft) 0 min 0 min
15.06.2018 22:54 20,6 C 17,1 C 19,1 C 73 % 0 % 1018 hPa 0,0 l/m 0,0 km/h (0 Bft) 0 min 0 min
15.06.2018 22:57 20,6 C 17,1 C 19,1 C 73 % 0 % 1018 hPa 0,0 l/m 0,0 km/h (0 Bft) 0 min 0 min
15.06.2018 23:00 20,6 C 17,0 C 19,1 C 74 % 0 % 1018 hPa 0,0 l/m 0,0 km/h (0 Bft) 0 min 0 min
15.06.2018 23:03 20,6 C 17,0 C 19,1 C 73 % 0 % 1019 hPa 0,0 l/m 0,0 km/h (0 Bft) 0 min 0 min
15.06.2018 23:06 20,6 C 17,0 C 19,2 C 73 % 0 % 1019 hPa 0,0 l/m 0,0 km/h (0 Bft) 0 min 0 min
15.06.2018 23:09 20,6 C 16,9 C 19,1 C 74 % 0 % 1019 hPa 0,0 l/m 0,0 km/h (0 Bft) 0 min 0 min
15.06.2018 23:12 20,6 C 16,9 C 19,0 C 73 % 0 % 1019 hPa 0,0 l/m 0,0 km/h (0 Bft) 0 min 0 min
15.06.2018 23:15 20,6 C 16,8 C 19,0 C 73 % 0 % 1019 hPa 0,0 l/m 0,0 km/h (0 Bft) 0 min 0 min
15.06.2018 23:18 20,5 C 16,8 C 19,0 C 73 % 0 % 1019 hPa 0,0 l/m 0,0 km/h (0 Bft) 0 min 0 min
15.06.2018 23:21 20,5 C 16,8 C 19,0 C 74 % 0 % 1019 hPa 0,0 l/m 0,0 km/h (0 Bft) 0 min 0 min
15.06.2018 23:24 20,5 C 16,8 C 19,0 C 74 % 0 % 1019 hPa 0,0 l/m 0,0 km/h (0 Bft) 0 min 0 min
15.06.2018 23:27 20,5 C 16,8 C 18,9 C 74 % 0 % 1018 hPa 0,0 l/m 0,1 km/h (0 Bft) 0 min 0 min
15.06.2018 23:30 20,5 C 16,7 C 18,7 C 75 % 0 % 1019 hPa 0,0 l/m 0,0 km/h (0 Bft) 0 min 0 min
15.06.2018 23:33 20,4 C 16,6 C 18,8 C 75 % 0 % 1019 hPa 0,0 l/m 0,0 km/h (0 Bft) 0 min 0 min
15.06.2018 23:36 20,4 C 16,5 C 18,7 C 75 % 0 % 1019 hPa 0,0 l/m 0,0 km/h (0 Bft) 0 min 0 min
15.06.2018 23:39 20,4 C 16,5 C 18,7 C 75 % 0 % 1019 hPa 0,0 l/m 0,0 km/h (0 Bft) 0 min 0 min
15.06.2018 23:42 20,4 C 16,3 C 18,7 C 75 % 0 % 1019 hPa 0,0 l/m 0,0 km/h (0 Bft) 0 min 0 min
15.06.2018 23:45 20,4 C 16,3 C 18,6 C 76 % 0 % 1019 hPa 0,0 l/m 0,0 km/h (0 Bft) 0 min 0 min
15.06.2018 23:48 20,4 C 16,2 C 18,6 C 76 % 0 % 1019 hPa 0,0 l/m 0,0 km/h (0 Bft) 0 min 0 min
15.06.2018 23:51 20,4 C 16,1 C 18,6 C 76 % 0 % 1019 hPa 0,0 l/m 0,0 km/h (0 Bft) 0 min 0 min
15.06.2018 23:54 20,4 C 16,0 C 18,6 C 77 % 0 % 1019 hPa 0,0 l/m 0,0 km/h (0 Bft) 0 min 0 min
15.06.2018 23:57 20,4 C 16,0 C 18,5 C 77 % 0 % 1019 hPa 0,0 l/m 0,0 km/h (0 Bft) 0 min 0 min
_ Min-Zeit 06:18 00:06 03:57 18:21 - 17:36 - 00:00 - -
Minimum _ 18,8 C 12,0 C 14,8 C 40 % - 1017 hPa - 0,0 km/h (0 Bft) - -
_ Max-Zeit 18:21 18:18 18:21 00:09 15:21 00:00 00:00 16:33 09:42 00:00
Maximum _ 21,0 C 22,9 C 21,3 C 81 % 80 % 1019 hPa 0,0 l/m 12,6 km/h
N (3 Bft)
3 min 0 min
Durchschnitt _ 20,1 C 17,2 C 17,9 C 63 % #10:42 h 1019 hPa #0,0 l/m 2,2 km/h (1 Bft) #10:42 h #0 min.